CZ-2F DEB (53362 NORAD) Tracking and Keplerian Element Data

This shows tracking and keplerian element data for the satellite.

Feedback or suggestion? Click here.




ElementValue
Catalog53362
NameCZ-2F DEB
Epoch Orbit376
Epoch Day241.8204025
Epoch Year2022
RAAN45.5791
Inclination49.8072
Eccentricity0.0346228
Argument of Perigee245.8859
Mean Anonmoly110.551
Mean Motion14.94236447
Decay Rate0.00071171
L11 53362U 22093F 22241.82040250 .00071171 00000+0 18972-2 0 9992
L22 53362 49.8072 45.5791 0346228 245.8859 110.5510 14.94236447 3761

Live tracking and technical data element details for CZ-2F DEB (NORAD 53362). CZ-2F DEB can be tracked NOW for your location showing map with azimuth and elevation plus other details from your city location.

Track the satellite on the map from your city or location and see movement details for azimuth, elevation, latitude, longitude, range, height, and movement on the map or in text.







IsCatalogInMostPopularTable: catalog: 53362, numindb: 1
Update: records affected: 1



GetName: 53362 CZ-2F DEB

Hit Count: updated at: Thu, 29 Sep 2022 11:30:31 GMT